ATLAS 5 CENTAUR DEB, 43982

Orbit data source: Space-Track

ATLAS 5 CENTAUR DEB, 43982 is space debris in HEO originally from a launch on Wed, 17 Sep 2014 UTC launched from the Air Force Eastern Test Range (AFETR). Debris objects in space refer to the collection of defunct objects orbiting the Earth. Examples of debris include non-operational satellites, rocket bodies, and fragments generated from explosions, collisions, or faulty payload assembly.

Loading next visibility...
Identifier
43982, 2014-055AM
Orbit
HEO
Country
Flag of USUS
Related business
Flag of USUnited Launch Alliance/Lockheed Martin (US)
Manufacturer
Unknown
Mission
Spacecraft
Bus & Motor
Unknown
Mass
Unknown
Launch date (UTC)
2014-09-17 (12 years ago)
Launch vehicle
Unknown
Launch site
Air Force Eastern Test Range (AFETR)
Object type
Payload
Rocket body
Debris
Shape & HBR
Unknown shape, 1.1 m
Radar Cross Section
RCS unknown

Expand to show TLE details & history
Last TLE update: 1 day ago

TLE from 1 day ago
0 ATLAS 5 CENTAUR DEB
1 43982U 14055AM  26127.13354148 -.00000012  00000-0  00000-0 0  9992
2 43982  19.0819 195.7155 4710146  75.3309 330.9037  1.75457845 49092
Epoch: 2026-05-07T03:12Z
TLE epoch observation values (Epoch: 2026-05-07T03:12:17.983Z)
Latitude
-0°
Longitude
-77.24693°
Altitude
13,778.461 km
Speed
5.082 km/s
True Right ascension
13h 03m 14s
True Declination
0° 00' 00"
Sunlit
Object was in daylight at epoch
Visualization orbit readout
Latitude
Unknown
Longitude
Unknown
Altitude
Unknown
Speed
Unknown
Apparent Right ascension
Unknown
Apparent Declination
Unknown
Sunlit
N/A
Visualization observer readout
Local Sidereal Time
10:49:31
Azimuth
Unknown
Elevation
Unknown
Doppler factor
Unknown
Orbital elements
Apogee altitude
36,338.624 km
Perigee altitude
8,983.059 km
Semi-major axis
29,038.978 km
Eccentricity
0.47101
Inclination
19.0819°
RAAN
195.7155°
Arg. of periapsis
75.3309°
True anomaly
284.68157°
Mean anomaly
330.9037°
Eccentric anomaly
310.33086°
Mean motion
0.4386 °/min
Orbital period
820.79 mins
BSTAR
0
Loading maneuver chart data...
Computing Atmospheric mass density...

Documentation

Showing up to 5 results
|